Wind_Speed
16 16 15 14 14 14 14 14 15 15 15 14 14 14 14 14 14 14 13 13 13 13 13 13 12 11 11 12 11 11 11 10 10 9 9 10 10 10 11 10 10 10 10 11 11 10 10 10 11 12 12 12 12 12 12 13 13 13 14 14 14 15 15 14 14 13 13 16 16 13 12 12 12 11 12 13 14 16 16 16 16 17 16 17 17
17 17 16 15 15 14 14 14 15 15 14 14 14 14 14 14 15 15 14 14 14 14 13 13 12 12 12 11 11 11 11 10 10 10 10 10 10 11 11 10 10 10 10 11 11 10 10 10 11 11 11 11 11 11 11 12 13 13 14 14 14 15 15 14 14 14 14 15 15 15 14 12 12 11 12 13 14 15 15 15 16 16 16 16 16
17 17 17 17 16 16 16 16 15 15 15 14 14 14 14 15 15 15 15 15 15 14 14 14 13 12 12 11 11 11 11 11 11 11 11 11 11 11 11 11 10 11 11 11 11 10 10 10 10 11 10 11 10 10 11 11 12 13 14 14 14 15 15 15 14 14 15 15 15 14 15 13 12 12 13 13 14 15 15 14 15 15 16 16 16
17 18 18 18 18 18 18 17 17 17 16 15 15 15 15 15 15 15 15 16 16 15 15 14 14 12 12 12 11 11 11 11 11 11 11 11 11 11 11 11 11 11 11 12 11 11 10 10 11 11 11 11 10 10 11 11 12 13 14 15 15 15 16 16 15 15 15 15 14 14 15 14 13 13 13 14 14 15 14 14 14 15 16 17 17
17 18 18 19 20 20 19 19 19 18 17 17 16 16 16 16 16 16 16 16 16 16 15 15 14 13 13 13 13 12 12 12 11 11 11 11 11 11 11 11 11 11 12 12 12 12 12 12 12 12 12 12 12 12 12 12 12 13 14 15 15 16 16 16 16 16 16 15 15 15 15 15 14 13 13 13 14 15 14 13 14 15 16 17 17
17 17 18 19 20 20 20 20 20 19 19 18 18 18 18 17 17 17 17 17 16 16 16 15 15 14 14 14 14 13 13 12 12 12 11 11 11 11 11 12 12 12 12 12 13 13 13 13 13 13 14 14 14 14 14 14 14 14 15 15 16 17 17 17 17 17 17 17 16 16 16 15 14 13 13 13 13 14 14 13 14 15 16 16 16
18 17 17 18 19 20 20 20 20 20 20 20 20 19 19 19 18 18 18 17 17 17 17 17 16 15 15 15 15 14 14 13 13 12 13 12 12 12 13 13 13 13 12 12 13 13 13 14 14 14 15 15 15 15 16 16 16 16 17 17 17 18 18 19 19 18 18 18 17 18 18 17 15 13 12 13 13 13 14 14 14 15 15 16 16
19 18 17 17 17 18 19 20 20 20 20 20 21 21 21 21 21 20 19 18 18 18 18 18 18 17 17 16 16 15 15 15 15 15 15 15 14 15 15 14 15 15 14 13 14 14 14 15 16 16 16 16 16 16 17 17 17 18 19 19 19 20 20 21 21 21 21 20 17 19 20 19 18 15 13 13 14 13 13 14 15 15 15 16 15
21 20 18 17 16 16 17 19 20 20 20 20 22 23 23 23 22 22 21 20 20 20 20 19 19 19 18 17 17 16 17 18 17 16 16 17 17 17 16 17 17 17 15 15 16 16 17 17 17 18 18 18 18 18 19 19 19 19 20 21 22 22 22 23 23 24 24 22 19 19 20 21 21 19 15 13 13 13 13 14 15 16 16 16 16
23 22 21 19 18 17 18 19 21 22 22 22 23 24 24 24 24 24 23 22 22 22 21 21 21 20 19 19 18 18 19 20 18 17 18 19 19 20 19 19 21 20 19 19 18 19 20 20 20 21 21 20 21 21 20 21 21 21 21 22 24 25 25 25 25 26 26 24 21 21 22 23 23 22 17 14 12 13 13 14 15 16 16 17 16
26 26 25 23 22 22 22 22 23 24 25 26 26 25 25 26 25 25 25 24 24 23 22 22 22 22 22 20 20 21 22 21 19 19 20 20 21 22 22 22 23 23 23 23 22 22 23 23 23 23 23 23 23 22 21 22 21 22 23 23 23 25 25 25 26 27 26 25 23 23 24 24 24 23 20 15 12 14 14 14 15 17 16 17 17
29 29 29 28 27 27 26 25 25 26 27 27 27 27 26 26 26 26 26 25 25 24 24 24 23 22 23 22 22 25 24 21 21 22 22 22 22 23 23 24 24 25 25 25 25 25 25 25 24 24 24 25 25 23 22 22 22 23 23 23 23 24 26 26 27 27 27 27 27 25 25 25 25 24 23 18 14 15 16 15 16 16 17 17 17
31 32 32 31 31 31 30 29 29 29 28 27 28 27 26 26 26 26 26 26 25 24 24 24 24 23 23 23 25 27 26 23 23 24 23 24 24 24 24 25 25 26 26 26 26 26 26 26 26 25 25 26 26 25 24 24 24 25 25 25 25 26 27 28 28 28 28 28 29 28 27 27 25 24 25 24 21 18 16 15 16 17 17 18 18
33 33 33 33 34 34 33 33 34 32 30 29 29 27 26 26 26 25 25 26 26 25 25 25 25 24 24 25 26 27 25 24 25 24 24 25 25 25 26 27 27 28 28 28 28 28 28 28 27 27 27 28 28 27 27 27 28 28 28 29 29 29 30 31 32 32 31 30 31 32 31 30 26 24 25 27 25 22 19 15 14 16 18 18 18
35 35 36 36 36 36 36 37 38 36 34 33 31 29 27 27 27 25 25 25 26 27 26 24 24 25 25 25 27 26 25 25 25 25 25 26 26 27 28 29 29 29 30 30 30 30 30 30 29 29 29 30 31 30 30 30 31 32 32 32 33 33 34 35 35 35 35 34 34 34 34 33 27 23 24 25 25 24 22 17 16 17 18 19 19
35 36 37 37 38 38 39 39 40 39 37 35 34 32 29 28 29 28 25 23 25 28 26 24 23 24 25 26 27 26 24 25 26 26 26 26 26 28 29 30 30 31 31 33 33 32 31 31 32 32 32 32 33 32 32 33 34 36 36 37 37 38 38 39 39 38 37 37 36 35 34 34 31 27 25 24 23 23 22 21 20 20 20 20 20
34 35 36 36 38 39 39 38 39 41 41 39 37 36 32 29 30 29 25 23 25 27 25 23 22 24 25 26 27 25 24 25 26 26 26 26 26 27 29 29 30 31 32 34 35 35 34 34 35 35 34 35 36 35 35 36 37 38 39 40 40 39 39 40 40 39 38 38 37 36 34 33 33 32 27 24 22 22 22 22 23 22 22 21 21
32 34 36 37 38 38 37 35 35 36 39 41 40 36 33 30 30 30 29 27 27 28 26 23 23 23 24 25 26 26 24 24 25 25 25 26 26 27 28 28 29 30 31 33 34 35 36 37 38 38 37 37 37 37 37 38 39 39 39 39 38 38 38 39 39 39 38 37 37 37 34 30 30 32 31 27 23 22 22 23 24 24 23 20 19
32 33 35 35 35 35 35 34 34 34 35 39 40 37 34 31 29 29 31 30 30 28 25 23 23 24 24 25 26 25 25 24 25 25 26 26 26 27 27 29 30 31 32 33 33 33 34 35 37 37 38 38 38 37 38 39 38 37 36 36 36 37 37 38 39 39 38 36 35 35 34 31 29 31 33 28 22 20 23 24 25 27 26 22 21
25 28 31 32 28 24 23 24 27 29 31 34 34 32 30 27 25 26 28 29 30 29 25 22 23 23 23 24 24 24 24 25 25 26 27 26 26 28 29 31 32 33 33 33 33 32 31 31 31 31 33 35 36 36 36 36 35 34 33 33 33 34 35 36 38 37 37 37 34 32 32 31 30 31 30 25 21 21 23 23 25 28 27 22 21
14 16 18 22 20 13 11 14 17 19 21 24 24 22 21 20 20 23 26 27 29 28 25 22 21 21 21 22 23 24 24 25 25 26 27 29 30 31 32 32 31 31 31 30 29 29 28 28 27 27 28 30 31 32 32 32 32 31 30 30 30 31 33 34 34 34 33 32 31 30 30 30 31 32 31 28 25 26 26 25 27 29 29 27 25
6 7 4 10 12 8 7 9 11 13 14 17 19 20 21 22 23 23 24 26 26 25 24 23 22 21 21 22 23 25 27 28 29 31 32 33 33 31 29 28 28 27 27 27 26 25 25 26 26 27 27 28 28 29 29 29 29 29 29 29 30 31 32 32 31 30 30 27 27 28 28 28 30 32 32 32 32 32 32 32 32 32 33 33 30
3 2 1 1 3 5 3 2 5 9 11 11 14 19 22 26 28 26 21 21 22 21 22 22 22 21 21 23 27 30 31 32 32 32 32 31 30 28 27 27 27 26 26 25 25 25 25 26 27 27 27 27 26 26 27 26 27 28 28 29 31 31 30 27 25 25 26 26 27 28 26 26 29 30 30 31 33 35 36 36 35 33 33 32 30
2 2 1 2 1 3 3 3 5 8 9 9 12 14 13 14 21 24 20 19 20 19 20 22 21 21 22 25 27 28 28 27 27 27 26 26 25 25 25 26 26 26 26 26 25 26 26 26 27 26 26 26 26 27 27 27 28 28 28 29 30 29 26 23 21 21 23 24 24 22 21 23 27 30 31 32 34 35 35 34 33 32 31 31 32
4 3 3 3 4 3 4 5 5 4 5 7 10 11 9 9 14 18 18 19 20 20 20 20 19 18 19 21 21 20 20 20 20 20 20 20 21 21 22 23 24 24 25 25 25 26 26 26 26 26 26 26 26 27 27 27 27 26 26 27 27 26 23 19 16 16 16 16 16 17 20 24 28 30 32 33 35 35 34 32 30 30 30 29 29
4 3 3 4 6 6 6 7 7 7 7 7 8 6 4 5 7 6 6 8 10 10 10 10 10 11 13 14 14 14 14 14 15 15 16 17 17 18 19 19 20 21 22 23 23 23 23 24 24 24 25 25 25 25 25 24 24 24 23 23 24 23 21 17 14 14 15 15 17 20 24 26 27 28 29 30 30 30 29 28 27 27 29 29 29
3 3 3 3 3 4 6 7 6 5 5 4 5 4 3 2 0 1 1 1 2 3 4 4 6 8 9 9 10 11 11 12 13 13 14 15 15 16 16 17 17 18 19 19 20 20 21 22 22 22 23 24 23 23 23 22 22 22 22 22 22 22 21 19 18 17 17 18 19 21 23 23 24 25 26 26 26 25 24 24 24 25 27 28 29
2 2 1 1 1 1 1 1 2 2 3 4 3 4 5 3 2 2 2 2 3 4 5 6 7 9 10 11 11 12 13 13 14 15 15 16 16 17 17 18 18 19 19 20 21 21 22 22 23 23 24 24 24 24 23 23 22 21 20 21 21 22 23 22 20 19 18 18 19 19 20 21 22 23 24 25 24 24 23 23 23 24 24 25 26
4 4 4 4 4 4 3 3 4 4 3 4 4 4 4 4 4 4 4 5 6 7 8 9 10 11 12 12 13 14 14 15 15 16 17 17 18 18 19 19 20 20 21 21 22 22 23 23 24 24 24 24 24 24 24 23 22 21 20 20 20 21 23 23 22 21 20 20 19 19 19 20 21 21 22 22 22 22 21 21 20 21 21 21 21
3 3 3 3 2 2 1 1 1 2 2 3 3 4 4 5 6 6 7 8 8 9 10 10 11 12 12 13 14 15 16 16 17 17 18 18 19 20 20 20 21 21 21 21 22 22 22 22 23 23 23 23 23 24 23 23 22 22 21 21 20 21 21 22 22 22 22 21 21 20 20 21 21 22 22 21 21 20 19 18 19 20 21 20 20
2 1 1 1 1 2 2 3 3 4 5 6 6 7 7 8 8 9 10 10 11 11 12 12 13 14 15 15 16 17 17 18 19 20 20 20 21 21 22 22 22 22 22 23 23 23 23 23 23 23 23 23 23 23 23 23 23 22 22 21 20 20 20 21 21 21 22 22 22 22 22 22 22 22 21 21 20 20 20 20 20 21 21 21 21
3 3 3 4 4 4 5 5 6 7 8 8 9 10 11 12 12 13 14 14 15 15 16 17 17 18 18 19 20 20 21 21 22 22 23 23 24 24 24 24 24 24 25 25 24 25 25 25 25 25 25 24 24 23 23 23 22 22 22 21 21 21 20 20 20 20 21 21 21 22 22 22 21 20 20 21 21 21 21 22 22 23 23 24 25
5 6 6 7 8 8 9 9 10 11 11 12 13 13 14 15 16 16 17 18 18 19 19 20 21 21 22 22 23 23 23 24 24 24 25 25 26 26 26 26 26 26 26 26 26 26 26 26 26 26 26 26 25 24 24 23 22 22 22 21 21 21 21 21 21 21 21 21 21 21 20 20 20 20 21 22 22 22 23 23 24 24 25 26 27
8 8 9 10 10 11 12 12 13 14 14 15 16 17 17 18 19 19 20 20 21 21 21 22 22 23 23 24 24 24 25 25 25 25 25 25 26 26 26 26 27 27 27 27 26 26 26 26 26 26 25 26 25 25 24 23 23 22 21 21 21 21 21 21 21 21 22 22 23 22 22 21 21 22 23 24 24 24 25 26 26 26 27 27 27
8 9 9 10 10 11 12 13 13 14 15 15 16 17 18 18 19 19 20 21 21 22 22 22 23 23 24 24 25 25 25 25 25 26 26 26 26 26 26 26 26 26 26 26 26 26 26 26 26 26 25 25 24 24 23 23 22 22 22 21 21 21 21 22 22 22 23 23 24 24 24 24 23 24 24 25 25 26 26 27 27 27 27 27 27
8 9 9 10 11 12 12 13 14 14 15 16 16 17 17 18 18 19 20 20 21 22 23 22 22 22 23 24 25 25 26 26 26 26 26 26 26 26 27 27 27 27 27 27 27 27 27 27 27 27 26 25 25 25 24 23 23 23 22 22 23 23 23 23 23 23 24 24 24 24 25 25 25 25 25 25 25 26 26 26 26 26 26 26 26
10 10 10 11 11 12 12 13 13 14 15 15 16 16 17 18 18 19 20 21 21 22 24 25 25 24 24 25 25 25 26 27 27 27 27 27 27 27 28 28 28 29 29 29 29 28 29 29 28 28 28 28 28 28 27 27 26 25 25 24 24 24 24 24 24 25 25 25 25 25 25 25 25 25 26 26 26 26 26 26 26 26 26 26 26
10 11 11 12 12 13 14 14 15 15 16 17 18 18 19 20 20 21 22 23 23 23 24 26 26 27 27 27 27 26 27 27 27 28 28 28 28 28 28 29 30 31 31 32 31 31 31 31 31 30 31 30 30 30 30 30 30 29 28 27 27 26 25 25 24 25 26 26 26 26 26 26 26 25 26 26 26 27 27 27 27 27 27 28 28
10 11 11 12 13 14 15 16 17 18 19 20 21 22 22 23 24 24 25 25 25 25 26 26 27 27 28 28 26 25 25 26 26 27 28 29 29 30 30 30 32 32 33 33 33 33 34 34 33 32 32 32 32 31 31 31 30 30 30 30 29 28 27 27 26 25 25 26 26 26 26 27 27 27 27 27 27 27 28 28 28 29 29 30 30
11 12 12 13 14 16 17 18 19 20 21 22 23 24 24 24 25 25 26 26 27 27 27 27 26 26 27 28 26 25 26 26 26 28 29 30 31 32 31 31 33 34 34 34 34 34 34 35 34 34 34 34 34 33 32 31 31 31 30 30 30 30 29 29 28 27 27 27 27 27 27 27 27 28 28 28 28 29 29 29 29 29 30 30 31
14 14 15 16 17 18 19 20 21 21 22 22 23 23 24 25 25 25 26 26 27 27 27 27 26 26 27 29 28 28 29 29 29 29 29 30 32 33 32 31 32 32 33 34 34 35 35 35 35 35 35 35 35 35 34 33 32 32 32 31 31 31 31 30 30 29 28 28 29 29 29 29 29 30 30 30 30 30 30 30 31 31 31 32 32
16 17 18 19 19 20 21 21 22 22 23 24 24 25 25 25 25 25 25 25 25 25 25 25 25 24 26 27 28 28 29 30 30 30 30 31 33 35 36 35 34 34 35 36 36 37 37 36 36 36 36 36 35 35 35 35 34 35 35 35 34 33 32 32 32 30 30 30 30 30 30 31 31 31 32 32 31 32 32 32 32 32 33 33 33
17 18 19 19 19 20 21 22 23 23 24 25 25 25 25 25 25 25 25 25 25 24 24 24 24 24 24 25 26 26 27 27 27 28 28 29 32 34 36 36 37 37 38 37 38 39 39 38 38 38 38 38 37 37 37 36 36 36 37 37 37 35 34 34 33 32 31 31 31 31 31 32 32 32 32 32 32 32 32 32 32 32 33 33 33
18 18 19 19 20 20 21 22 23 24 24 24 24 24 23 23 23 24 24 24 25 25 25 26 26 26 26 25 26 25 24 23 25 26 26 28 31 33 35 36 38 38 37 36 37 38 38 38 38 39 39 39 39 38 38 38 39 39 39 39 38 36 35 34 33 32 31 30 30 30 30 30 30 31 31 31 31 31 32 32 32 32 33 33 33
18 19 19 20 21 22 23 23 24 24 24 24 23 23 22 23 23 24 24 25 25 26 26 27 27 27 26 25 25 24 23 23 25 25 25 27 30 33 34 35 37 38 38 38 38 37 38 38 38 39 39 40 40 39 39 39 39 39 39 39 38 37 35 33 32 31 30 29 29 29 29 29 29 29 29 29 29 29 30 30 30 31 31 32 32
19 19 20 20 21 22 23 23 23 23 23 22 22 22 23 24 25 25 26 26 27 27 28 28 27 26 25 24 23 23 22 22 24 25 25 28 31 32 33 35 37 39 41 43 42 39 38 38 39 39 40 39 39 38 38 38 38 38 37 36 36 35 33 31 31 30 29 28 28 27 27 27 27 27 27 27 27 27 28 28 29 29 30 30 30
19 19 20 21 21 22 22 22 22 22 22 22 23 24 24 25 25 25 26 27 28 28 28 27 25 23 23 23 22 22 22 23 24 26 27 30 32 32 33 35 36 39 41 43 41 39 39 39 39 39 38 38 36 35 36 36 36 36 34 33 32 30 28 28 28 28 28 27 26 26 26 26 26 27 27 27 27 27 27 28 28 28 29 29 29
19 20 20 21 21 22 22 22 22 23 23 23 24 24 24 24 24 25 25 26 27 29 29 27 24 23 23 23 24 24 24 25 26 27 29 31 32 33 34 35 36 38 40 41 40 38 38 37 36 34 34 35 35 35 36 36 36 34 33 32 30 28 26 26 27 27 26 26 26 26 26 26 26 26 26 27 27 27 28 28 28 28 29 29 29
19 19 20 20 21 22 22 22 23 23 23 23 24 24 24 24 25 25 26 26 26 27 28 27 26 26 26 26 27 27 27 26 27 28 29 30 31 33 35 36 36 37 39 40 39 37 35 34 33 32 32 33 34 35 36 36 34 33 31 30 28 26 26 26 26 26 26 26 26 26 26 26 26 27 27 27 28 28 28 28 28 28 28 28 28
19 19 20 21 21 22 22 23 23 23 24 23 24 24 25 25 25 26 26 26 26 26 26 26 26 27 27 27 27 27 27 27 27 27 28 29 30 32 34 35 35 33 33 34 36 35 35 34 32 30 29 29 29 30 30 30 29 27 27 26 25 25 26 26 26 25 25 25 25 25 26 26 27 27 27 27 27 27 27 27 27 27 27 27 27
18 19 20 20 21 22 23 23 23 24 24 24 24 25 25 26 26 27 27 26 26 25 25 25 25 26 26 26 27 28 28 28 28 28 28 29 30 31 32 32 31 30 29 31 33 33 33 32 28 24 22 23 24 24 25 25 24 23 23 23 24 24 25 25 25 25 24 24 24 24 25 25 25 26 26 26 26 26 26 26 26 26 26 25 25
Wind_Direction
204 206 209 210 211 213 216 219 220 221 222 224 225 225 227 229 231 232 234 237 239 241 243 246 246 247 248 249 250 250 250 251 255 258 260 262 263 264 264 264 263 263 265 267 268 270 271 272 273 274 274 274 275 276 279 283 286 288 288 291 295 296 297 299 299 299 298 297 300 302 301 306 312 316 320 324 329 332 335 339 342 345 346 342 345
207 208 211 213 215 217 220 222 224 226 227 228 229 230 232 234 236 237 238 239 241 242 244 246 247 248 250 252 253 253 254 255 256 259 260 261 263 264 266 267 268 270 270 270 271 272 273 275 275 276 277 277 276 274 275 279 283 287 289 291 295 295 297 298 298 299 298 297 299 301 302 306 308 311 316 321 325 329 332 336 339 341 342 340 340
210 212 212 213 215 219 221 223 225 228 229 230 231 232 235 237 238 239 241 242 242 242 244 244 245 245 247 249 251 254 256 257 257 258 260 261 262 265 269 271 273 275 275 274 274 273 273 273 273 275 277 278 278 277 275 276 278 282 285 287 289 290 291 293 293 294 296 295 297 297 298 303 305 306 311 318 323 325 327 331 336 338 338 336 334
215 216 216 215 216 219 221 223 225 226 228 229 230 231 235 238 239 238 239 241 241 242 242 242 243 243 243 243 245 249 252 254 256 257 258 261 263 264 267 270 273 274 276 276 277 277 277 275 273 275 278 279 280 279 277 277 278 281 284 284 284 284 285 287 289 290 291 291 292 291 291 295 297 300 307 315 318 320 323 326 331 334 334 333 331
219 220 221 220 220 221 222 224 226 226 227 228 229 231 233 235 237 236 237 239 240 241 242 242 243 242 242 242 242 243 246 251 255 258 262 264 264 264 266 267 270 272 274 276 278 279 278 277 277 277 279 280 280 279 278 279 280 282 283 284 285 284 283 284 285 286 286 285 285 284 283 284 288 294 302 308 312 315 319 322 325 330 332 333 332
222 223 224 225 226 226 225 225 227 227 227 228 229 232 234 236 236 235 235 236 237 239 241 242 244 243 243 244 244 244 245 248 252 256 261 264 265 266 266 267 268 269 271 273 276 279 279 279 279 279 280 280 279 279 280 280 280 279 279 281 282 283 284 284 284 285 285 282 280 278 277 278 282 288 294 299 304 308 310 313 318 325 330 333 332
223 224 225 227 229 230 229 230 231 231 230 230 231 233 235 237 239 239 238 236 236 238 241 242 243 245 245 246 249 250 251 252 254 255 257 259 262 264 266 269 271 272 273 274 276 278 280 280 281 281 281 281 280 281 281 281 281 281 280 280 281 282 283 284 283 282 280 278 277 277 277 276 275 275 283 292 297 299 301 305 310 318 327 329 327
225 227 228 229 228 229 231 233 234 234 235 234 235 236 237 238 239 240 240 238 237 238 241 244 244 245 247 248 251 254 257 257 256 255 257 257 257 258 259 261 263 264 265 268 271 275 276 278 280 281 281 282 281 282 282 282 282 281 281 281 280 280 281 281 281 280 278 277 279 282 283 284 281 273 270 281 290 294 297 299 303 311 319 322 322
225 229 232 232 231 229 231 234 234 235 236 236 237 238 238 239 240 240 240 239 238 237 239 244 247 248 249 250 252 255 259 260 258 258 262 264 264 265 266 267 267 269 269 269 271 274 275 276 276 277 279 281 282 283 283 283 283 284 285 285 285 284 284 284 285 287 287 285 284 284 285 288 288 281 274 278 285 289 293 296 299 306 312 315 316
224 229 231 232 233 233 233 233 233 233 232 232 234 237 238 238 238 239 239 238 238 239 240 242 245 247 249 250 252 254 256 258 262 264 265 268 270 272 274 275 277 279 280 278 276 276 277 278 277 276 276 276 277 279 281 284 287 289 289 289 290 290 288 288 289 291 292 292 292 291 289 289 288 282 279 284 287 287 292 295 298 302 307 311 312
223 226 228 230 232 234 235 235 235 235 233 229 227 229 232 234 235 237 238 239 240 241 242 243 245 248 251 253 254 255 254 256 260 263 264 267 271 274 276 277 278 280 280 280 280 277 277 277 278 279 278 276 275 277 281 284 285 286 286 286 288 289 289 289 290 290 291 292 292 291 289 290 290 284 279 281 283 288 294 296 297 301 304 306 308
227 227 228 229 230 232 234 236 239 239 238 237 233 229 228 231 234 236 237 239 241 242 244 245 246 248 252 254 256 256 255 257 260 261 264 266 267 270 272 274 277 279 280 281 281 279 277 277 277 278 279 280 281 282 282 281 280 280 282 283 283 285 287 288 289 289 290 290 288 287 285 288 290 287 287 286 278 281 290 294 295 298 300 302 304
232 232 232 231 232 233 233 234 237 237 236 239 242 239 235 234 236 237 238 239 239 241 244 246 246 246 249 252 254 255 257 259 260 262 265 266 266 267 268 270 273 275 276 278 278 278 277 277 276 275 276 278 280 281 281 281 281 281 282 283 283 283 283 284 285 286 286 286 286 285 282 281 282 284 288 288 280 275 280 287 292 295 297 300 300
236 235 236 236 236 237 236 236 238 238 236 237 243 244 241 239 239 241 243 244 242 239 240 242 245 247 248 251 253 256 259 261 262 264 267 268 269 270 270 272 273 274 275 276 276 277 277 276 276 276 275 276 278 280 280 281 282 282 283 284 285 284 283 282 281 281 280 280 283 282 279 276 275 278 285 289 289 285 277 277 287 292 294 297 297
239 237 238 239 240 239 237 235 236 238 238 238 241 242 240 239 240 240 242 247 248 245 242 241 244 247 250 252 255 257 260 262 264 266 267 268 270 271 272 273 274 274 275 275 274 274 274 275 275 275 275 276 278 280 281 282 283 283 284 285 285 284 283 280 278 278 278 279 281 281 280 279 277 276 280 285 291 291 287 287 292 291 291 292 292
243 243 242 244 246 246 243 238 235 236 238 239 240 239 236 238 241 239 239 244 248 249 248 245 245 249 252 255 259 261 261 263 265 266 267 268 269 270 272 273 273 273 274 274 273 273 272 272 273 273 274 276 277 278 280 281 283 284 285 285 285 284 283 280 279 280 279 279 279 278 279 281 281 278 275 276 283 287 287 291 293 289 287 287 288
247 247 248 248 251 253 252 247 241 238 237 237 237 236 234 235 238 239 240 244 247 248 249 249 248 250 252 254 258 261 261 263 266 268 269 270 271 271 272 273 272 272 271 272 273 274 273 271 270 271 272 273 275 277 278 279 280 282 283 285 285 285 284 284 283 282 278 276 276 277 278 281 282 280 275 271 275 279 281 285 288 286 283 284 285
250 251 252 252 252 255 256 253 249 244 242 240 237 236 235 233 235 239 241 245 250 250 249 249 250 249 250 253 257 260 261 263 266 269 271 271 271 272 273 274 274 274 276 277 277 277 275 271 268 268 269 271 273 275 277 278 278 279 281 284 286 286 286 285 282 279 275 273 272 272 272 272 275 278 277 273 271 273 276 279 281 280 279 281 282
256 255 254 253 252 254 254 254 250 247 245 243 239 239 238 233 232 237 238 240 248 250 246 246 248 250 251 254 258 261 264 267 269 270 271 270 270 271 272 274 277 280 283 285 285 284 281 276 271 267 267 269 272 273 275 277 278 280 282 284 286 288 287 285 282 276 271 268 268 267 265 265 267 270 272 271 269 272 277 280 281 281 279 277 277
254 257 255 249 247 251 254 254 251 245 242 240 238 236 234 227 224 229 233 237 245 248 247 247 248 249 252 255 259 264 267 270 270 270 269 268 269 272 274 276 278 281 283 285 286 287 286 284 280 274 270 270 272 274 276 277 279 281 283 285 288 290 290 289 287 280 271 266 266 264 261 262 265 264 262 262 268 275 278 281 285 285 279 273 273
252 267 252 228 222 235 250 251 249 242 236 233 229 226 223 219 221 228 233 238 243 245 247 249 249 251 257 259 260 264 266 267 268 268 267 268 272 276 279 280 280 281 282 283 284 285 286 287 286 283 279 278 278 279 279 280 282 284 285 287 289 291 292 292 289 282 274 267 261 256 254 256 259 258 255 255 264 273 275 278 283 284 278 270 265
274 297 240 194 195 210 235 241 239 235 231 228 229 232 234 232 230 231 235 237 238 239 244 249 253 258 263 264 262 263 266 267 268 268 269 271 275 278 280 281 281 282 281 282 283 284 285 286 286 286 286 284 283 283 282 283 285 287 289 290 290 292 294 293 286 279 273 268 258 251 250 253 254 255 256 258 262 268 273 276 279 280 278 272 263
334 332 51 109 177 182 178 202 221 223 228 231 234 239 245 242 235 232 237 241 240 241 247 250 253 257 261 263 264 266 267 267 267 268 269 272 275 276 279 281 282 282 282 283 284 284 284 285 286 288 289 288 287 286 286 288 290 291 292 293 293 294 295 292 284 275 269 265 258 250 250 255 256 257 261 263 263 267 272 275 278 279 280 278 273
68 85 81 50 123 191 235 264 238 222 221 226 226 224 230 239 232 226 231 239 237 236 240 242 243 248 255 260 262 264 266 267 266 268 270 272 275 276 279 281 282 283 283 283 285 285 286 287 288 289 289 289 288 288 289 291 292 292 293 293 293 295 297 293 288 279 270 264 258 251 254 262 263 263 264 265 266 269 272 275 278 279 279 280 277
131 132 166 193 195 204 233 246 249 246 236 241 240 225 211 224 229 222 222 231 234 234 238 239 238 243 252 257 258 262 266 269 271 273 275 277 280 281 282 283 284 285 285 286 287 288 289 290 290 291 291 290 290 290 291 292 292 293 293 292 290 292 296 297 294 288 280 270 264 264 265 265 263 264 265 266 267 269 270 272 275 276 276 277 274
177 182 198 207 208 213 227 241 254 265 268 272 275 265 228 223 238 234 220 228 237 241 244 245 247 253 260 263 265 270 274 276 279 281 283 284 286 287 288 288 288 288 289 290 291 292 293 294 294 295 295 294 294 294 294 294 295 295 293 291 289 290 293 294 292 290 286 278 271 270 267 264 262 263 265 266 267 267 267 269 270 270 271 271 269
211 228 237 236 227 222 233 249 260 271 286 295 299 322 11 69 266 322 338 261 256 252 251 259 265 267 272 276 277 279 281 281 283 285 286 287 289 290 291 292 292 293 294 295 296 298 299 300 300 300 299 299 299 300 300 299 300 300 298 296 294 293 292 290 287 283 280 274 270 269 269 268 267 265 264 265 266 264 264 266 267 267 268 267 265
119 103 104 92 59 91 158 296 342 6 14 20 13 360 7 21 11 344 320 296 288 278 275 278 277 278 282 283 282 283 284 285 286 287 288 290 291 291 291 292 293 295 296 298 299 300 301 302 302 302 302 302 303 303 304 304 303 302 301 298 295 294 292 290 287 283 277 273 271 269 269 270 270 269 268 267 264 262 262 264 264 265 264 263 262
97 89 88 87 74 66 64 52 44 40 30 22 13 359 349 343 335 322 308 301 294 288 287 286 285 285 287 286 287 288 288 288 289 289 290 291 292 292 293 293 294 294 295 296 297 299 300 300 301 302 302 303 303 303 304 305 304 303 300 297 293 291 289 289 287 285 282 279 275 271 268 267 267 266 265 263 262 261 261 261 261 260 259 259 261
110 106 97 97 96 80 58 36 4 344 331 322 314 312 307 303 299 296 295 294 291 289 288 287 286 287 287 286 287 287 288 289 291 291 292 292 292 293 294 294 294 295 295 296 297 298 299 300 300 301 301 301 302 302 302 303 303 302 300 298 295 292 290 288 287 286 284 281 276 272 269 267 265 263 261 259 258 257 255 254 255 256 257 260 264
157 166 186 225 240 255 266 271 277 280 283 285 287 287 285 284 284 283 282 281 280 281 281 280 281 282 282 282 284 284 285 287 288 288 290 290 290 291 291 291 293 293 294 295 296 296 297 298 298 299 299 299 299 299 299 299 300 300 300 299 297 295 292 290 288 286 283 280 276 273 272 270 268 265 262 259 256 253 249 248 249 254 259 263 265
219 235 249 262 269 272 273 274 275 276 276 278 279 280 281 282 283 282 282 282 282 282 282 282 282 282 282 282 283 283 284 285 285 287 288 288 289 290 290 290 291 291 291 292 293 293 294 294 294 294 294 294 295 295 295 296 296 296 296 296 295 294 293 291 289 287 284 281 278 274 272 269 267 264 261 258 254 252 252 253 254 259 263 265 266
252 261 268 273 277 281 283 284 285 284 284 284 283 283 283 283 283 283 283 283 283 282 283 283 282 282 282 282 282 283 283 283 284 285 285 286 286 287 287 288 288 288 289 289 289 289 290 290 290 290 290 290 291 291 292 292 293 293 293 293 292 291 290 289 287 285 283 282 279 276 271 266 261 257 256 256 255 254 255 258 259 262 264 266 268
258 263 268 272 275 278 280 282 284 285 286 286 287 287 286 286 286 285 284 284 285 284 284 285 285 284 284 284 284 284 284 284 284 284 284 285 285 285 285 286 286 286 287 287 286 286 286 286 286 286 287 288 288 289 289 289 289 290 290 290 289 289 288 286 284 283 281 280 278 276 273 268 263 258 257 259 260 261 262 264 265 265 266 267 269
257 260 264 268 271 273 276 277 278 279 280 281 282 282 283 284 285 285 286 286 286 286 286 286 287 287 287 287 287 287 286 286 286 286 285 285 285 286 286 286 286 286 286 285 285 284 284 284 284 284 285 286 287 287 287 287 287 286 286 285 285 284 283 282 281 280 279 278 277 276 276 274 272 270 268 268 268 269 270 271 272 272 271 271 271
265 268 271 272 274 276 277 278 280 281 282 284 285 286 288 289 290 291 292 292 293 293 293 291 290 290 290 289 289 289 289 288 287 286 286 285 285 285 285 285 284 284 283 282 282 282 281 282 282 282 283 284 285 286 286 286 286 286 284 283 282 280 279 279 278 278 277 277 276 275 275 274 274 274 273 273 273 273 273 274 274 274 275 275 274
284 286 287 287 288 288 288 288 289 290 290 292 293 293 294 295 295 296 296 296 297 297 296 296 296 295 293 291 291 290 289 288 287 286 285 284 283 283 282 282 282 281 281 280 280 279 279 279 280 281 282 283 284 285 285 285 284 283 283 282 280 279 278 277 277 277 277 277 277 277 276 276 276 275 275 275 275 274 274 274 274 274 274 274 275
291 294 295 297 298 299 300 300 301 301 301 302 301 301 300 299 299 298 298 298 298 298 297 297 298 297 295 295 294 291 288 286 285 284 283 283 282 280 279 279 279 278 278 279 279 279 279 279 280 282 283 283 284 284 284 284 283 282 281 280 279 278 278 277 276 277 277 277 278 278 278 278 278 278 278 277 276 276 276 276 276 276 276 276 276
289 292 294 296 297 298 299 300 300 301 302 301 301 301 300 300 300 300 300 300 300 299 299 299 298 298 297 297 294 290 287 286 284 284 284 284 283 281 279 278 277 276 276 277 278 278 279 280 282 284 285 286 286 286 284 283 283 282 282 281 280 279 278 277 276 276 276 277 278 278 278 278 278 278 278 278 277 278 277 277 277 277 277 277 277
293 294 296 297 297 297 297 297 298 298 297 297 297 296 296 297 297 298 298 299 300 300 301 302 303 302 301 299 295 292 290 287 284 283 284 284 283 282 280 279 278 278 277 276 276 277 279 280 281 283 285 286 286 286 286 286 286 285 284 284 283 282 280 278 277 276 276 276 276 276 276 277 277 277 277 277 277 277 277 277 277 277 277 277 277
303 304 304 304 303 302 301 300 300 299 298 297 296 296 296 296 295 295 295 296 297 298 299 301 303 303 301 301 300 298 296 293 289 285 283 282 281 280 279 278 279 279 279 278 278 279 280 281 282 282 283 283 284 285 286 287 288 287 286 285 285 284 283 281 280 278 277 276 276 276 276 276 275 275 275 275 275 276 276 276 276 276 276 277 277
308 308 308 307 307 306 306 305 304 303 302 301 300 299 298 298 297 297 297 296 296 297 298 298 299 299 299 299 300 300 299 298 294 291 288 285 281 279 278 278 278 279 280 280 279 280 281 282 283 284 284 283 283 284 284 285 286 287 287 287 286 286 285 283 282 280 278 276 275 275 274 274 274 274 275 275 275 275 275 275 276 276 276 276 276
305 305 305 305 305 305 304 304 303 303 302 301 300 300 299 300 299 299 300 300 300 301 300 300 300 299 298 299 299 299 299 299 297 294 290 285 282 281 280 278 278 279 279 279 278 277 278 279 281 282 283 283 283 283 283 283 283 284 285 286 286 285 284 284 283 281 280 277 276 275 274 273 274 274 275 275 276 276 277 277 277 277 277 278 278
304 304 303 303 303 303 302 301 301 300 299 298 297 296 296 297 297 298 299 299 300 300 300 300 300 299 299 299 300 300 300 299 296 293 289 284 281 280 280 280 281 280 277 275 274 275 276 276 277 277 278 278 279 279 280 281 282 283 284 284 284 283 283 283 282 281 281 280 279 277 276 276 276 276 276 276 277 277 278 278 279 279 280 280 280
306 305 305 305 304 304 304 302 301 299 297 295 294 293 293 294 294 295 295 295 295 295 296 296 297 297 297 298 299 299 298 295 290 288 286 283 279 277 276 277 278 278 275 274 275 276 275 273 273 273 274 275 276 277 279 280 282 283 283 283 281 281 281 281 280 279 280 280 280 280 280 279 278 278 278 278 278 279 279 280 280 281 281 282 282
306 306 306 306 305 305 304 303 301 300 298 296 296 297 297 296 296 295 294 294 293 293 293 293 294 294 294 294 294 293 291 288 286 284 282 280 278 277 275 272 272 273 274 274 275 275 273 271 270 272 273 274 275 277 280 282 283 283 283 281 278 276 276 277 278 279 279 280 280 280 280 279 279 279 280 280 280 281 282 282 282 283 283 283 284
306 306 306 306 305 305 304 303 302 301 301 301 302 302 301 300 299 298 296 295 294 293 292 291 291 291 290 289 288 286 285 283 283 282 280 278 278 278 277 274 272 272 272 270 269 269 269 267 268 270 272 273 275 277 281 283 283 282 282 280 276 273 274 277 279 280 280 280 279 279 278 279 279 279 280 281 281 282 282 283 284 285 285 285 285
305 305 305 305 305 305 305 304 304 303 303 303 303 302 301 300 299 299 299 297 295 292 290 289 288 288 287 286 285 283 282 282 281 281 281 280 279 278 276 274 273 274 273 270 266 263 262 263 266 270 273 275 277 279 281 281 279 279 279 279 276 275 278 280 281 282 281 280 279 279 279 279 279 280 281 281 282 282 284 285 285 286 286 286 286
305 305 305 306 305 305 305 304 303 302 302 302 302 301 301 301 301 302 302 301 297 293 289 286 284 283 283 283 283 283 283 283 282 281 281 280 279 277 276 275 275 277 277 273 266 260 258 262 267 271 273 274 275 276 277 275 273 274 278 280 280 281 283 284 285 284 284 282 281 281 281 280 281 282 282 283 283 284 284 284 285 285 285 285 285
306 306 306 306 307 307 306 304 302 300 299 300 300 301 302 303 304 305 305 304 300 297 293 289 286 284 283 284 285 285 285 285 284 284 283 281 280 279 279 279 281 283 280 274 267 264 265 267 267 266 266 269 272 275 277 277 278 280 283 283 283 283 285 287 288 288 287 286 285 284 283 283 283 283 283 283 284 284 284 283 283 283 283 283 284
307 306 306 307 307 306 305 303 301 300 299 300 300 301 301 303 305 305 305 304 302 299 296 294 292 290 289 289 289 289 289 288 287 286 285 284 283 283 283 284 286 285 280 274 271 271 271 270 268 266 268 272 275 278 281 285 289 291 291 290 288 287 287 288 288 289 289 288 287 286 285 285 284 284 284 284 284 284 284 284 284 283 283 283 283
Height
3219 3220 3221 3222 3223 3224 3225 3226 3227 3228 3229 3230 3231 3232 3232 3233 3234 3234 3235 3236 3236 3237 3238 3238 3239 3239 3239 3239 3239 3240 3240 3240 3241 3241 3241 3241 3242 3242 3242 3242 3242 3242 3242 3242 3242 3242 3242 3242 3242 3241 3241 3241 3241 3241 3241 3240 3239 3239 3238 3238 3237 3236 3235 3235 3235 3234 3234 3233 3232 3232 3231 3230 3229 3229 3229 3228 3227 3226 3225 3224 3223 3222 3221 3220 3219
3217 3218 3219 3220 3221 3223 3223 3224 3226 3227 3228 3229 3230 3231 3231 3232 3233 3233 3234 3234 3235 3236 3236 3237 3237 3238 3238 3238 3238 3239 3239 3239 3240 3240 3240 3240 3240 3240 3240 3241 3241 3241 3241 3241 3241 3241 3240 3240 3240 3240 3240 3240 3240 3240 3239 3239 3238 3238 3237 3236 3236 3235 3234 3233 3233 3233 3232 3231 3230 3230 3229 3229 3228 3228 3227 3227 3226 3225 3224 3224 3223 3222 3221 3220 3218
3215 3216 3217 3219 3220 3221 3222 3223 3224 3225 3226 3227 3228 3229 3230 3231 3231 3232 3233 3233 3234 3234 3235 3235 3235 3236 3237 3237 3237 3238 3238 3238 3238 3239 3239 3239 3239 3239 3239 3240 3240 3240 3240 3240 3240 3240 3240 3240 3239 3239 3239 3239 3238 3238 3238 3238 3237 3237 3236 3235 3234 3234 3233 3232 3231 3231 3230 3229 3229 3228 3228 3227 3227 3227 3226 3225 3225 3224 3223 3223 3222 3221 3220 3219 3217
3214 3214 3216 3217 3218 3219 3220 3221 3222 3223 3225 3226 3227 3228 3228 3229 3230 3231 3231 3232 3233 3233 3233 3234 3234 3235 3235 3235 3236 3236 3237 3237 3237 3237 3238 3238 3238 3238 3238 3239 3239 3239 3239 3239 3239 3239 3239 3239 3238 3238 3238 3237 3237 3237 3237 3236 3236 3235 3234 3233 3233 3232 3231 3230 3230 3229 3229 3228 3227 3227 3226 3226 3225 3225 3225 3224 3223 3222 3222 3221 3221 3220 3219 3218 3217
3212 3213 3214 3215 3216 3217 3218 3219 3220 3222 3223 3224 3225 3226 3227 3227 3228 3229 3229 3230 3231 3232 3232 3233 3233 3233 3234 3234 3234 3235 3235 3236 3236 3236 3236 3236 3237 3237 3237 3237 3238 3238 3238 3238 3238 3238 3238 3237 3237 3237 3237 3236 3236 3236 3235 3234 3234 3233 3232 3232 3231 3230 3229 3229 3228 3227 3227 3226 3225 3225 3224 3224 3224 3224 3223 3223 3222 3221 3220 3220 3219 3219 3218 3217 3216
3210 3212 3213 3214 3214 3216 3217 3217 3219 3220 3221 3222 3223 3224 3225 3225 3226 3227 3227 3228 3229 3230 3230 3231 3232 3232 3233 3233 3233 3233 3234 3234 3234 3235 3235 3235 3235 3235 3236 3236 3236 3236 3236 3236 3236 3236 3236 3236 3236 3236 3235 3235 3235 3234 3234 3233 3232 3232 3231 3230 3229 3228 3228 3227 3226 3225 3225 3224 3223 3222 3222 3221 3222 3222 3221 3221 3220 3220 3219 3218 3218 3217 3217 3216 3215
3208 3210 3211 3212 3213 3214 3215 3216 3217 3218 3219 3220 3221 3222 3223 3224 3225 3225 3226 3227 3228 3228 3229 3229 3230 3230 3231 3231 3232 3232 3232 3232 3233 3233 3233 3233 3233 3234 3234 3234 3234 3234 3234 3234 3235 3234 3234 3234 3234 3234 3233 3233 3233 3233 3232 3231 3231 3230 3229 3228 3227 3226 3226 3225 3224 3223 3222 3221 3220 3220 3219 3219 3219 3219 3219 3219 3218 3218 3217 3217 3216 3216 3215 3214 3213
3206 3208 3209 3210 3211 3213 3214 3214 3215 3216 3217 3218 3219 3220 3221 3222 3223 3223 3224 3225 3226 3227 3227 3227 3228 3229 3229 3230 3230 3230 3231 3231 3231 3231 3231 3230 3231 3231 3231 3231 3231 3231 3232 3232 3232 3232 3232 3232 3232 3231 3231 3231 3231 3231 3230 3229 3229 3228 3227 3226 3226 3224 3223 3222 3221 3220 3219 3217 3217 3217 3218 3218 3218 3217 3216 3216 3216 3215 3215 3215 3214 3214 3213 3212 3212
3204 3205 3207 3208 3209 3210 3211 3212 3213 3214 3215 3216 3217 3218 3219 3220 3221 3222 3223 3224 3224 3225 3226 3226 3227 3227 3228 3228 3229 3229 3229 3229 3229 3229 3229 3229 3229 3229 3229 3229 3229 3229 3230 3229 3229 3230 3230 3230 3230 3229 3228 3228 3228 3228 3228 3227 3227 3226 3226 3225 3224 3223 3222 3221 3220 3219 3217 3216 3215 3216 3216 3215 3216 3215 3213 3212 3212 3213 3213 3213 3212 3212 3211 3211 3210
3202 3203 3204 3205 3206 3207 3208 3208 3209 3210 3211 3212 3213 3215 3216 3217 3218 3219 3220 3221 3222 3223 3224 3225 3225 3226 3226 3226 3227 3227 3227 3227 3228 3228 3228 3228 3228 3228 3228 3228 3228 3228 3229 3228 3227 3227 3227 3227 3227 3226 3225 3225 3225 3225 3225 3225 3224 3224 3224 3223 3222 3221 3220 3220 3219 3218 3217 3216 3215 3214 3214 3214 3214 3213 3209 3208 3209 3210 3210 3210 3210 3210 3209 3209 3208
3199 3200 3201 3202 3203 3204 3205 3205 3206 3207 3207 3208 3209 3210 3212 3213 3215 3216 3217 3219 3220 3221 3222 3223 3224 3224 3224 3225 3225 3225 3225 3225 3226 3226 3226 3226 3226 3226 3226 3226 3226 3226 3226 3226 3225 3225 3225 3225 3224 3223 3222 3221 3221 3222 3223 3223 3222 3221 3221 3220 3219 3219 3218 3217 3217 3216 3215 3215 3214 3213 3212 3212 3212 3211 3209 3207 3206 3207 3208 3208 3208 3208 3208 3207 3206
3196 3197 3198 3199 3200 3201 3202 3203 3204 3204 3205 3206 3206 3207 3208 3210 3211 3213 3215 3216 3217 3219 3220 3220 3221 3222 3222 3223 3223 3222 3222 3223 3224 3224 3224 3224 3224 3224 3224 3224 3224 3224 3223 3223 3223 3223 3223 3223 3222 3222 3221 3219 3218 3219 3220 3220 3219 3219 3218 3217 3217 3216 3215 3214 3213 3213 3212 3212 3212 3211 3210 3209 3210 3210 3209 3207 3205 3205 3205 3205 3206 3206 3206 3205 3205
3193 3194 3195 3197 3197 3198 3199 3200 3201 3202 3203 3203 3204 3206 3207 3208 3209 3211 3212 3213 3214 3216 3217 3217 3218 3219 3219 3220 3220 3219 3220 3221 3221 3221 3222 3222 3222 3222 3221 3221 3221 3221 3221 3220 3220 3220 3220 3220 3220 3220 3219 3217 3217 3217 3217 3217 3216 3216 3215 3215 3214 3214 3213 3212 3211 3210 3210 3209 3209 3208 3207 3206 3207 3207 3207 3206 3205 3204 3202 3201 3203 3203 3203 3203 3203
3189 3190 3192 3193 3194 3195 3197 3197 3198 3199 3200 3201 3202 3203 3205 3206 3207 3208 3210 3211 3212 3213 3213 3214 3215 3215 3216 3216 3216 3216 3218 3219 3218 3219 3219 3219 3219 3219 3219 3219 3219 3218 3218 3218 3217 3217 3217 3217 3217 3217 3216 3215 3215 3215 3214 3214 3213 3213 3213 3212 3211 3211 3210 3209 3208 3208 3207 3206 3206 3205 3203 3202 3203 3204 3203 3203 3204 3202 3199 3198 3199 3201 3201 3200 3200
3185 3186 3187 3188 3189 3191 3193 3193 3194 3196 3198 3198 3199 3200 3201 3203 3204 3205 3206 3208 3210 3210 3210 3210 3212 3213 3213 3213 3212 3213 3215 3216 3216 3216 3216 3216 3217 3217 3216 3216 3216 3215 3215 3214 3214 3214 3213 3213 3213 3213 3213 3213 3212 3212 3212 3211 3210 3210 3209 3209 3208 3207 3207 3206 3205 3204 3204 3204 3204 3204 3202 3201 3201 3201 3200 3200 3200 3200 3198 3197 3197 3198 3198 3198 3198
3181 3182 3183 3184 3185 3186 3188 3189 3190 3192 3193 3194 3195 3197 3198 3199 3201 3202 3203 3205 3207 3207 3207 3208 3209 3210 3210 3210 3210 3211 3213 3213 3213 3213 3213 3213 3214 3213 3213 3213 3213 3212 3212 3211 3210 3210 3209 3209 3210 3210 3210 3209 3209 3209 3209 3208 3207 3206 3205 3205 3204 3203 3202 3200 3200 3201 3201 3201 3201 3201 3201 3200 3199 3199 3198 3197 3197 3198 3197 3197 3196 3196 3195 3195 3195
3178 3179 3179 3181 3182 3182 3183 3186 3187 3188 3189 3190 3191 3193 3194 3195 3196 3198 3200 3201 3203 3204 3204 3206 3207 3207 3207 3208 3207 3208 3210 3210 3209 3210 3210 3210 3210 3210 3209 3209 3209 3209 3208 3208 3208 3207 3206 3206 3206 3206 3206 3205 3204 3204 3204 3204 3203 3202 3200 3200 3199 3198 3197 3196 3195 3196 3196 3196 3196 3197 3197 3196 3196 3196 3195 3194 3194 3194 3195 3194 3194 3193 3192 3191 3191
3173 3174 3175 3176 3177 3177 3179 3182 3183 3184 3185 3187 3187 3189 3190 3191 3192 3194 3197 3198 3199 3201 3201 3202 3204 3204 3204 3204 3204 3205 3206 3207 3206 3206 3206 3206 3206 3206 3206 3205 3205 3205 3205 3204 3204 3203 3202 3201 3201 3201 3201 3200 3200 3200 3200 3199 3198 3197 3196 3195 3193 3193 3193 3191 3190 3190 3191 3191 3191 3191 3192 3192 3192 3193 3193 3191 3191 3191 3192 3192 3192 3191 3190 3188 3187
3168 3169 3170 3170 3171 3172 3174 3177 3178 3179 3181 3183 3183 3184 3186 3187 3189 3192 3195 3196 3196 3197 3198 3199 3200 3200 3201 3202 3202 3202 3203 3203 3203 3203 3203 3203 3203 3202 3202 3202 3201 3201 3200 3200 3199 3198 3198 3196 3196 3197 3197 3196 3196 3196 3195 3194 3193 3192 3191 3190 3189 3188 3187 3185 3184 3183 3184 3185 3185 3186 3187 3187 3188 3189 3189 3189 3188 3188 3189 3190 3189 3188 3188 3187 3185
3165 3165 3164 3165 3167 3169 3170 3172 3174 3175 3177 3178 3180 3181 3182 3184 3187 3189 3191 3193 3194 3195 3195 3196 3197 3198 3198 3199 3199 3199 3199 3199 3199 3199 3199 3199 3199 3199 3199 3198 3198 3197 3196 3196 3195 3194 3193 3192 3191 3192 3192 3191 3191 3191 3190 3189 3188 3188 3187 3186 3184 3183 3181 3179 3178 3177 3178 3179 3180 3181 3182 3182 3183 3184 3185 3185 3185 3185 3185 3186 3186 3185 3185 3184 3183
3162 3161 3159 3161 3165 3168 3169 3170 3172 3173 3174 3175 3177 3179 3180 3182 3184 3186 3188 3190 3191 3192 3193 3194 3195 3195 3196 3196 3196 3196 3196 3196 3195 3195 3195 3195 3195 3195 3195 3194 3194 3193 3192 3192 3191 3190 3189 3188 3188 3188 3187 3187 3187 3186 3186 3185 3184 3183 3183 3182 3180 3179 3177 3175 3173 3172 3172 3174 3175 3175 3176 3177 3178 3179 3181 3182 3182 3182 3181 3182 3182 3182 3182 3180 3179
3161 3160 3160 3161 3164 3167 3168 3170 3171 3172 3173 3174 3176 3178 3179 3180 3182 3184 3185 3186 3187 3189 3190 3191 3192 3192 3193 3193 3193 3192 3192 3192 3191 3191 3191 3191 3191 3191 3191 3190 3190 3189 3188 3188 3187 3186 3186 3185 3184 3184 3184 3183 3183 3182 3182 3181 3181 3180 3179 3178 3176 3174 3172 3170 3169 3168 3168 3169 3170 3170 3172 3173 3174 3175 3177 3178 3178 3178 3178 3178 3179 3179 3177 3176 3175
3162 3162 3163 3165 3166 3167 3168 3169 3170 3171 3173 3174 3175 3176 3177 3178 3179 3182 3183 3184 3185 3186 3187 3188 3189 3190 3190 3190 3190 3189 3188 3188 3188 3188 3187 3187 3187 3187 3187 3186 3186 3185 3185 3184 3184 3183 3183 3182 3182 3181 3180 3180 3180 3179 3178 3178 3177 3176 3175 3174 3172 3171 3169 3166 3165 3164 3165 3165 3166 3167 3169 3171 3171 3172 3173 3174 3174 3174 3174 3174 3174 3174 3173 3172 3172
3163 3163 3164 3166 3167 3168 3169 3169 3170 3171 3172 3173 3173 3174 3175 3175 3176 3179 3181 3182 3182 3183 3183 3184 3186 3187 3187 3187 3186 3186 3185 3185 3185 3184 3184 3184 3184 3184 3183 3183 3182 3182 3182 3181 3181 3180 3180 3179 3179 3178 3177 3177 3176 3176 3175 3174 3174 3173 3172 3170 3169 3167 3165 3164 3162 3162 3162 3162 3163 3165 3167 3168 3169 3169 3169 3170 3170 3170 3170 3170 3169 3169 3169 3168 3167
3163 3164 3165 3166 3167 3168 3168 3169 3170 3171 3172 3172 3172 3172 3173 3173 3174 3176 3178 3179 3180 3180 3181 3182 3183 3183 3184 3184 3183 3183 3183 3183 3182 3182 3181 3181 3181 3181 3180 3180 3179 3179 3179 3178 3178 3177 3177 3176 3175 3175 3174 3173 3173 3172 3172 3171 3170 3169 3168 3167 3165 3164 3163 3161 3161 3161 3160 3161 3163 3165 3166 3166 3165 3165 3165 3166 3166 3166 3166 3166 3165 3165 3164 3163 3163
3164 3164 3165 3166 3166 3167 3168 3168 3169 3170 3171 3171 3171 3171 3172 3173 3174 3175 3177 3179 3180 3180 3180 3181 3181 3181 3182 3182 3182 3182 3181 3181 3180 3180 3179 3179 3178 3178 3178 3178 3177 3177 3176 3175 3175 3174 3174 3173 3172 3171 3171 3170 3169 3169 3168 3167 3166 3165 3164 3163 3162 3161 3161 3160 3159 3159 3159 3160 3161 3163 3163 3162 3162 3162 3162 3162 3162 3162 3162 3162 3161 3161 3160 3160 3159
3164 3165 3166 3166 3166 3167 3167 3168 3169 3170 3170 3170 3170 3171 3171 3173 3174 3175 3176 3177 3178 3179 3179 3180 3180 3180 3181 3181 3181 3180 3180 3179 3179 3178 3177 3177 3176 3176 3176 3175 3175 3175 3174 3173 3173 3172 3171 3170 3169 3169 3168 3167 3166 3165 3165 3164 3163 3162 3161 3160 3159 3159 3158 3158 3158 3158 3157 3157 3158 3158 3159 3159 3159 3159 3159 3159 3159 3158 3158 3157 3157 3157 3156 3156 3156
3164 3165 3165 3166 3167 3167 3168 3168 3168 3169 3169 3170 3170 3171 3171 3172 3173 3174 3175 3176 3177 3178 3179 3179 3179 3179 3179 3179 3179 3179 3178 3177 3177 3176 3176 3175 3175 3174 3174 3173 3173 3172 3172 3171 3170 3170 3169 3168 3167 3166 3165 3165 3164 3162 3162 3161 3160 3159 3158 3158 3157 3156 3156 3155 3155 3155 3155 3155 3155 3155 3155 3155 3155 3156 3155 3155 3155 3155 3154 3154 3153 3153 3153 3153 3152
3164 3165 3166 3167 3167 3168 3168 3168 3169 3169 3169 3170 3170 3171 3171 3172 3173 3174 3175 3176 3176 3177 3178 3178 3178 3178 3178 3178 3177 3177 3176 3176 3175 3175 3174 3173 3173 3172 3172 3171 3171 3170 3170 3169 3168 3168 3167 3166 3165 3164 3163 3162 3161 3160 3159 3158 3158 3157 3156 3155 3155 3154 3153 3153 3153 3152 3152 3152 3152 3152 3152 3152 3152 3152 3151 3151 3151 3151 3151 3150 3150 3150 3150 3149 3149
3165 3166 3167 3167 3168 3168 3169 3169 3169 3170 3170 3171 3171 3172 3172 3173 3173 3174 3174 3175 3175 3176 3176 3176 3176 3176 3176 3176 3176 3175 3175 3174 3173 3173 3172 3171 3171 3170 3170 3169 3169 3168 3167 3167 3166 3165 3164 3163 3163 3162 3161 3160 3159 3158 3157 3156 3156 3155 3154 3154 3153 3152 3151 3151 3150 3149 3149 3148 3148 3148 3148 3148 3148 3148 3148 3147 3147 3147 3147 3147 3147 3147 3147 3146 3146
3166 3167 3167 3168 3168 3169 3169 3169 3170 3170 3170 3171 3171 3171 3172 3172 3173 3173 3174 3174 3174 3174 3174 3174 3174 3174 3174 3174 3174 3173 3173 3172 3171 3170 3170 3169 3168 3168 3167 3167 3166 3166 3165 3164 3163 3163 3162 3161 3160 3159 3159 3158 3157 3156 3155 3154 3154 3153 3152 3151 3151 3150 3149 3148 3148 3147 3146 3146 3145 3145 3145 3145 3145 3145 3145 3145 3144 3144 3144 3144 3144 3144 3144 3143 3143
3166 3166 3167 3167 3168 3168 3169 3169 3169 3169 3170 3170 3170 3171 3171 3171 3172 3172 3172 3172 3172 3172 3172 3172 3172 3172 3172 3171 3171 3170 3170 3169 3168 3167 3167 3166 3165 3165 3164 3164 3163 3163 3162 3161 3161 3160 3159 3158 3158 3157 3156 3155 3155 3154 3153 3152 3151 3151 3150 3149 3148 3148 3147 3146 3146 3145 3144 3144 3143 3143 3142 3142 3142 3142 3142 3142 3142 3142 3141 3141 3141 3141 3141 3140 3140
3165 3165 3166 3166 3167 3167 3167 3168 3168 3168 3168 3168 3169 3169 3169 3170 3170 3170 3170 3170 3170 3170 3170 3169 3169 3169 3168 3168 3167 3167 3166 3165 3165 3164 3163 3163 3162 3161 3161 3160 3160 3159 3159 3158 3158 3157 3156 3155 3155 3154 3153 3152 3152 3151 3151 3150 3149 3148 3148 3147 3146 3146 3145 3144 3144 3143 3142 3141 3141 3140 3140 3140 3140 3140 3140 3139 3139 3139 3139 3138 3138 3138 3137 3137 3136
3164 3165 3165 3165 3165 3166 3166 3166 3166 3166 3167 3167 3166 3167 3167 3167 3167 3167 3167 3167 3167 3167 3166 3166 3166 3165 3164 3164 3163 3163 3162 3161 3161 3160 3160 3159 3158 3158 3157 3157 3156 3156 3155 3155 3154 3154 3153 3152 3151 3151 3150 3149 3149 3148 3147 3147 3146 3145 3145 3144 3144 3143 3142 3142 3141 3140 3140 3139 3138 3138 3138 3137 3137 3137 3137 3136 3136 3135 3135 3135 3134 3134 3134 3133 3133
3163 3164 3164 3164 3164 3164 3164 3165 3165 3165 3165 3165 3165 3165 3165 3164 3164 3164 3164 3164 3163 3163 3163 3163 3162 3161 3161 3160 3159 3159 3158 3157 3157 3156 3156 3155 3155 3154 3154 3153 3152 3152 3151 3151 3150 3150 3149 3148 3148 3147 3146 3146 3145 3144 3144 3143 3143 3142 3141 3141 3140 3140 3139 3139 3138 3137 3136 3136 3135 3135 3134 3134 3134 3134 3133 3133 3132 3132 3131 3131 3130 3130 3130 3129 3129
3162 3162 3162 3162 3162 3162 3162 3162 3162 3162 3162 3162 3162 3162 3162 3162 3161 3161 3161 3160 3160 3159 3159 3159 3159 3158 3157 3156 3156 3155 3154 3154 3153 3153 3152 3152 3151 3151 3150 3150 3149 3148 3147 3147 3146 3146 3145 3144 3144 3143 3143 3142 3141 3141 3140 3139 3139 3138 3138 3137 3136 3136 3135 3135 3134 3133 3133 3132 3132 3131 3131 3130 3130 3130 3129 3129 3128 3128 3127 3127 3126 3126 3125 3125 3125
3159 3159 3159 3159 3159 3159 3159 3159 3159 3159 3159 3159 3159 3159 3159 3159 3158 3158 3157 3157 3156 3156 3155 3154 3154 3153 3153 3152 3152 3151 3150 3150 3149 3148 3148 3148 3148 3147 3147 3146 3145 3145 3144 3143 3143 3142 3141 3141 3140 3139 3139 3138 3138 3137 3136 3136 3135 3134 3134 3133 3132 3132 3131 3130 3130 3129 3129 3128 3128 3127 3127 3126 3126 3126 3125 3125 3124 3124 3123 3123 3122 3122 3122 3121 3121
3157 3157 3157 3157 3157 3157 3156 3156 3156 3156 3156 3156 3156 3155 3155 3155 3154 3154 3154 3153 3153 3152 3151 3150 3149 3149 3148 3147 3147 3147 3146 3145 3145 3144 3144 3143 3143 3143 3142 3142 3141 3140 3139 3139 3138 3138 3137 3136 3136 3135 3135 3134 3134 3133 3132 3131 3131 3130 3129 3129 3128 3128 3127 3126 3126 3125 3125 3124 3124 3123 3123 3122 3122 3122 3121 3121 3120 3120 3119 3119 3118 3118 3117 3117 3116
3156 3156 3156 3156 3156 3155 3155 3154 3154 3154 3154 3153 3153 3152 3152 3151 3151 3150 3149 3149 3148 3148 3147 3146 3145 3144 3143 3143 3142 3142 3141 3141 3141 3140 3140 3139 3139 3138 3138 3137 3136 3136 3135 3134 3134 3134 3133 3132 3132 3131 3130 3130 3129 3128 3127 3127 3126 3125 3125 3124 3124 3123 3123 3122 3122 3121 3120 3120 3119 3119 3119 3118 3118 3117 3117 3116 3116 3115 3115 3114 3114 3113 3113 3112 3112
3154 3155 3154 3154 3154 3153 3153 3153 3152 3152 3151 3151 3150 3149 3148 3148 3147 3147 3146 3145 3144 3143 3142 3142 3141 3140 3139 3138 3138 3137 3137 3137 3137 3137 3136 3136 3134 3134 3134 3133 3132 3131 3130 3130 3130 3129 3128 3127 3127 3127 3126 3125 3124 3123 3123 3122 3121 3121 3120 3120 3119 3118 3118 3118 3117 3117 3116 3116 3115 3115 3114 3114 3113 3113 3112 3112 3111 3111 3110 3109 3109 3108 3108 3107 3106
3151 3151 3151 3151 3151 3150 3150 3149 3149 3148 3148 3147 3146 3146 3145 3144 3144 3143 3142 3141 3140 3139 3138 3138 3137 3136 3135 3134 3133 3133 3133 3133 3133 3133 3132 3132 3131 3129 3129 3129 3128 3127 3126 3125 3125 3125 3124 3123 3123 3122 3121 3120 3120 3119 3118 3118 3117 3116 3116 3115 3115 3114 3114 3113 3112 3112 3111 3111 3111 3110 3110 3109 3109 3108 3107 3107 3106 3106 3105 3105 3104 3103 3103 3102 3101
3148 3148 3148 3147 3147 3146 3146 3145 3144 3144 3143 3143 3142 3141 3141 3140 3139 3138 3138 3137 3136 3135 3134 3134 3133 3132 3131 3130 3129 3129 3128 3128 3128 3128 3128 3128 3127 3125 3125 3125 3124 3123 3122 3121 3120 3120 3120 3119 3118 3117 3116 3116 3115 3114 3113 3113 3113 3112 3111 3110 3110 3109 3108 3108 3107 3107 3107 3106 3106 3105 3105 3104 3104 3103 3102 3102 3101 3101 3100 3100 3099 3098 3098 3097 3096
3146 3146 3145 3145 3144 3143 3143 3142 3141 3140 3140 3139 3138 3137 3136 3135 3135 3134 3133 3132 3131 3130 3130 3129 3128 3127 3126 3125 3125 3124 3124 3124 3123 3123 3123 3123 3122 3121 3120 3120 3119 3118 3118 3116 3115 3114 3114 3113 3113 3112 3111 3111 3111 3110 3109 3108 3108 3107 3106 3105 3104 3104 3103 3103 3102 3101 3101 3101 3100 3100 3099 3098 3098 3097 3097 3096 3096 3095 3094 3094 3093 3093 3092 3091 3091
3144 3143 3142 3142 3141 3141 3140 3139 3139 3138 3137 3136 3135 3134 3133 3132 3131 3130 3129 3128 3127 3126 3126 3125 3124 3122 3121 3120 3120 3120 3119 3119 3119 3118 3118 3117 3117 3116 3116 3115 3113 3113 3112 3111 3109 3108 3108 3107 3107 3107 3106 3106 3106 3105 3104 3103 3103 3103 3101 3100 3099 3098 3098 3098 3097 3096 3096 3095 3094 3094 3093 3093 3092 3092 3091 3091 3090 3089 3089 3088 3088 3087 3087 3086 3085
3140 3140 3139 3139 3138 3138 3137 3136 3135 3135 3134 3133 3132 3131 3130 3129 3128 3127 3126 3125 3124 3123 3122 3121 3120 3119 3118 3117 3116 3116 3116 3115 3114 3114 3113 3112 3111 3111 3111 3110 3108 3107 3106 3105 3104 3103 3102 3101 3101 3101 3100 3100 3100 3099 3099 3098 3098 3097 3096 3096 3095 3093 3093 3093 3092 3091 3091 3090 3089 3088 3088 3087 3087 3086 3086 3085 3085 3084 3083 3083 3082 3082 3081 3080 3080
3137 3137 3136 3136 3135 3134 3133 3133 3132 3131 3130 3130 3129 3128 3127 3126 3125 3124 3123 3122 3121 3120 3119 3118 3117 3115 3114 3114 3113 3112 3112 3111 3110 3110 3109 3107 3105 3105 3105 3104 3103 3102 3100 3099 3098 3097 3097 3096 3095 3095 3095 3095 3094 3094 3093 3092 3092 3091 3090 3090 3089 3088 3088 3088 3087 3087 3086 3085 3084 3084 3083 3083 3082 3082 3081 3080 3080 3079 3078 3078 3077 3077 3076 3075 3075
3135 3134 3133 3133 3132 3131 3130 3129 3128 3128 3127 3126 3125 3124 3124 3123 3121 3120 3119 3118 3116 3115 3114 3113 3112 3111 3110 3110 3109 3108 3107 3107 3106 3105 3104 3102 3101 3100 3099 3098 3098 3097 3095 3093 3092 3092 3091 3091 3090 3090 3089 3089 3089 3088 3088 3087 3086 3085 3085 3084 3084 3083 3083 3083 3082 3082 3081 3080 3080 3079 3079 3078 3077 3077 3076 3076 3075 3074 3074 3073 3073 3072 3071 3071 3070
3132 3131 3131 3130 3129 3128 3127 3126 3125 3124 3123 3123 3122 3121 3120 3119 3118 3116 3115 3114 3112 3111 3109 3109 3108 3107 3105 3105 3104 3103 3102 3102 3101 3100 3099 3098 3097 3096 3095 3093 3093 3092 3090 3089 3088 3087 3086 3086 3085 3085 3085 3084 3084 3084 3083 3082 3081 3080 3080 3080 3079 3078 3078 3078 3077 3077 3076 3076 3075 3074 3074 3073 3073 3072 3072 3071 3071 3070 3069 3069 3068 3067 3067 3066 3065
3129 3128 3128 3127 3126 3125 3124 3123 3122 3121 3120 3119 3118 3117 3116 3115 3113 3112 3111 3110 3108 3106 3105 3104 3103 3102 3101 3100 3099 3098 3097 3097 3096 3095 3094 3093 3092 3091 3090 3089 3088 3088 3087 3085 3084 3083 3082 3082 3081 3080 3080 3079 3079 3079 3078 3078 3077 3076 3075 3075 3075 3074 3073 3073 3073 3073 3072 3071 3071 3070 3069 3069 3068 3068 3067 3067 3066 3066 3065 3064 3063 3063 3062 3061 3061
3126 3125 3124 3124 3123 3122 3121 3120 3119 3118 3117 3116 3115 3113 3112 3111 3110 3108 3107 3105 3103 3102 3100 3099 3098 3097 3096 3095 3094 3093 3093 3092 3091 3090 3089 3088 3087 3086 3085 3084 3084 3083 3083 3082 3081 3080 3080 3078 3077 3076 3075 3075 3075 3075 3074 3073 3072 3071 3071 3070 3070 3070 3070 3070 3069 3068 3068 3067 3066 3066 3065 3064 3064 3063 3063 3062 3062 3061 3061 3060 3059 3058 3058 3057 3056
3123 3122 3121 3120 3119 3119 3118 3117 3116 3114 3113 3112 3111 3110 3108 3107 3106 3104 3102 3101 3099 3098 3096 3095 3094 3092 3091 3090 3090 3089 3088 3087 3086 3086 3085 3084 3083 3082 3081 3080 3080 3079 3079 3079 3078 3077 3076 3075 3073 3072 3071 3071 3071 3071 3071 3070 3069 3068 3067 3066 3066 3066 3066 3065 3065 3064 3063 3063 3062 3062 3061 3060 3060 3059 3059 3058 3058 3057 3056 3056 3055 3054 3053 3053 3052